| time (UTC) | temp F | wind direction | speed knots | gust knots | rain 1hr in | rain 24hr in | rain mn in | humidity % | barometer mb |
| 20260510213313 | 52 | 276 | 0.9 | 2.6 | 0.00 | 0.52 | 0.52 | 100 | 1011.0 |
| 20260510212812 | 52 | 233 | 0.9 | 2.6 | 0.00 | 0.52 | 0.52 | 100 | 1011.1 |
| 20260510211313 | 51 | 104 | 0.9 | 2.6 | 0.00 | 0.52 | 0.52 | 100 | 1011.0 |
| 20260510210312 | 52 | 6 | 1.7 | 2.6 | 0.00 | 0.52 | 0.52 | 100 | 1011.0 |
| 20260510205813 | 52 | 5 | 0.9 | 2.6 | 0.00 | 0.52 | 0.52 | 100 | 1010.9 |
| 20260510205313 | 52 | 6 | 0.9 | 1.7 | 0.00 | 0.52 | 0.52 | 100 | 1010.9 |
| 20260510204313 | 52 | 20 | 0.9 | 2.6 | 0.00 | 0.52 | 0.52 | 100 | 1010.9 |
| 20260510203812 | 52 | 10 | 0.9 | 2.6 | 0.01 | 0.52 | 0.52 | 100 | 1010.8 |
| 20260510203312 | 52 | 1 | 1.7 | 2.6 | 0.01 | 0.52 | 0.52 | 100 | 1010.8 |
| 20260510202813 | 52 | 352 | 1.7 | 2.6 | 0.02 | 0.52 | 0.52 | 100 | 1010.8 |
| 20260510201812 | 52 | 345 | 0.9 | 1.7 | 0.04 | 0.52 | 0.52 | 100 | 1010.7 |
| 20260510200312 | 52 | 160 | 1.7 | 2.6 | 0.04 | 0.52 | 0.52 | 100 | 1010.6 |
| 20260510193812 | 53 | 78 | 0.9 | 2.6 | 0.03 | 0.51 | 0.51 | 100 | 1010.4 |
| 20260510190312 | 53 | 60 | 2.6 | 5.2 | 0.00 | 0.48 | 0.48 | 100 | 1009.9 |
| 20260510185813 | 53 | 113 | 3.5 | 6.1 | 0.00 | 0.48 | 0.48 | 100 | 1009.8 |
| 20260510185313 | 53 | 100 | 4.3 | 6.1 | 0.00 | 0.48 | 0.48 | 100 | 1009.7 |
| 20260510184812 | 53 | 87 | 3.5 | 7.8 | 0.00 | 0.48 | 0.48 | 100 | 1009.6 |
| 20260510181813 | 54 | 78 | 5.2 | 10.4 | 0.00 | 0.48 | 0.48 | 100 | 1009.4 |
| 20260510181312 | 55 | 79 | 5.2 | 10.4 | 0.00 | 0.48 | 0.48 | 100 | 1009.4 |
| 20260510174813 | 54 | 75 | 7.8 | 11.3 | 0.01 | 0.49 | 0.48 | 100 | 1009.7 |
| 20260510174315 | 55 | 74 | 7.8 | 11.3 | 0.01 | 0.49 | 0.48 | 100 | 1009.7 |
| 20260510173813 | 55 | 63 | 7.8 | 10.4 | 0.01 | 0.49 | 0.48 | 100 | 1009.7 |
| 20260510173313 | 55 | 54 | 7.0 | 10.4 | 0.01 | 0.49 | 0.48 | 100 | 1009.8 |
| 20260510172813 | 55 | 74 | 6.1 | 10.4 | 0.01 | 0.49 | 0.48 | 100 | 1009.9 |
| 20260510172313 | 55 | 70 | 6.1 | 10.4 | 0.01 | 0.49 | 0.48 | 100 | 1009.9 |
| 20260510171312 | 54 | 41 | 5.2 | 7.8 | 0.01 | 0.49 | 0.48 | 100 | 1010.0 |
| 20260510170312 | 55 | 32 | 6.1 | 8.7 | 0.01 | 0.49 | 0.48 | 100 | 1009.9 |
| 20260510163812 | 54 | 255 | 1.7 | 7.0 | 0.34 | 0.48 | 0.47 | 100 | 1009.7 |
| 20260510162812 | 54 | 18 | 5.2 | 10.4 | 0.34 | 0.48 | 0.47 | 100 | 1009.5 |
| 20260510162312 | 54 | 345 | 8.7 | 10.4 | 0.34 | 0.48 | 0.47 | 100 | 1009.5 |
| 20260510161312 | 53 | 234 | 10.4 | 10.4 | 0.34 | 0.48 | 0.47 | 100 | 1009.3 |
| 20260510160812 | 53 | 234 | 10.4 | 10.4 | 0.34 | 0.48 | 0.47 | 100 | 1009.4 |
| 20260510160312 | 53 | 234 | 10.4 | 10.4 | 0.34 | 0.48 | 0.47 | 100 | 1009.5 |
| 20260510155818 | 53 | 234 | 10.4 | 20.0 | 0.32 | 0.46 | 0.46 | 100 | 1009.5 |
| 20260510154812 | 56 | 209 | 3.5 | 7.0 | 0.08 | 0.23 | 0.21 | 100 | 1009.2 |
| 20260510154313 | 57 | 59 | 1.7 | 7.8 | 0.00 | 0.15 | 0.13 | 100 | 1008.8 |
| 20260510153813 | 57 | 6 | 4.3 | 7.8 | 0.01 | 0.15 | 0.13 | 100 | 1008.5 |
| 20260510153312 | 58 | 8 | 3.5 | 8.7 | 0.01 | 0.15 | 0.13 | 100 | 1008.5 |
| 20260510151812 | 56 | 89 | 6.1 | 10.4 | 0.02 | 0.15 | 0.13 | 100 | 1008.6 |
| 20260510145812 | 55 | 105 | 7.0 | 11.3 | 0.02 | 0.15 | 0.13 | 100 | 1008.6 |
| 20260510143812 | 56 | 317 | 7.8 | 13.0 | 0.02 | 0.14 | 0.13 | 100 | 1009.1 |
| 20260510143312 | 56 | 286 | 7.8 | 12.2 | 0.02 | 0.14 | 0.13 | 100 | 1009.2 |
| 20260510142813 | 57 | 301 | 5.2 | 7.8 | 0.00 | 0.13 | 0.11 | 100 | 1009.0 |
| 20260510142312 | 57 | 322 | 4.3 | 7.8 | 0.00 | 0.13 | 0.11 | 99 | 1008.9 |
| 20260510141312 | 57 | 298 | 6.1 | 7.8 | 0.00 | 0.13 | 0.11 | 100 | 1008.7 |
| 20260510135813 | 58 | 297 | 7.8 | 10.4 | 0.00 | 0.14 | 0.11 | 98 | 1008.6 |
| 20260510135313 | 59 | 314 | 7.8 | 10.4 | 0.00 | 0.17 | 0.11 | 97 | 1008.5 |
| 20260510134313 | 60 | 291 | 7.8 | 13.0 | 0.00 | 0.20 | 0.11 | 97 | 1008.4 |
| 20260510133813 | 60 | 306 | 8.7 | 13.9 | 0.00 | 0.21 | 0.11 | 99 | 1008.5 |
| 20260510132812 | 60 | 204 | 7.8 | 11.3 | 0.00 | 0.22 | 0.11 | 100 | 1008.5 |
| 20260510132312 | 58 | 214 | 7.0 | 12.2 | 0.00 | 0.23 | 0.11 | 100 | 1008.4 |
| 20260510131813 | 58 | 194 | 5.2 | 14.8 | 0.00 | 0.23 | 0.11 | 100 | 1008.5 |
| 20260510130812 | 59 | 194 | 11.3 | 14.8 | 0.00 | 0.23 | 0.11 | 100 | 1008.6 |
| 20260510130312 | 59 | 193 | 7.0 | 13.0 | 0.00 | 0.23 | 0.11 | 100 | 1008.5 |
| 20260510124813 | 59 | 209 | 2.6 | 10.4 | 0.00 | 0.23 | 0.11 | 100 | 1008.5 |
| 20260510124314 | 58 | 175 | 6.1 | 11.3 | 0.00 | 0.23 | 0.11 | 100 | 1008.6 |
| 20260510123813 | 58 | 177 | 7.0 | 11.3 | 0.00 | 0.23 | 0.11 | 100 | 1008.6 |
| 20260510123312 | 58 | 209 | 4.3 | 10.4 | 0.00 | 0.23 | 0.11 | 100 | 1008.7 |
| 20260510122313 | 58 | 193 | 5.2 | 10.4 | 0.01 | 0.23 | 0.11 | 100 | 1008.8 |
| 20260510121812 | 57 | 160 | 7.0 | 11.3 | 0.02 | 0.23 | 0.11 | 100 | 1008.8 |
| 20260510120812 | 55 | 177 | 6.1 | 11.3 | 0.02 | 0.23 | 0.11 | 100 | 1009.0 |
| 20260510120312 | 55 | 183 | 6.1 | 11.3 | 0.05 | 0.23 | 0.11 | 100 | 1009.0 |
| 20260510114812 | 56 | 185 | 7.8 | 10.4 | 0.05 | 0.23 | 0.11 | 100 | 1008.9 |
| 20260510113312 | 54 | 224 | 6.1 | 10.4 | 0.05 | 0.23 | 0.11 | 100 | 1008.9 |
| 20260510112812 | 53 | 224 | 5.2 | 7.8 | 0.05 | 0.23 | 0.11 | 100 | 1009.0 |
| 20260510112312 | 53 | 228 | 6.1 | 7.8 | 0.04 | 0.22 | 0.10 | 100 | 1009.0 |
| 20260510110812 | 56 | 232 | 11.3 | 15.6 | 0.02 | 0.20 | 0.09 | 100 | 1008.8 |
| 20260510110312 | 58 | 232 | 11.3 | 13.0 | 0.00 | 0.18 | 0.06 | 100 | 1008.7 |
| 20260510103812 | 60 | 202 | 7.8 | 12.2 | 0.00 | 0.18 | 0.06 | 97 | 1008.4 |
| 20260510103312 | 59 | 196 | 6.1 | 11.3 | 0.00 | 0.18 | 0.06 | 99 | 1008.4 |
| 20260510102812 | 58 | 221 | 7.8 | 11.3 | 0.00 | 0.18 | 0.06 | 99 | 1008.5 |
| 20260510100812 | 59 | 177 | 7.8 | 14.8 | 0.00 | 0.18 | 0.06 | 96 | 1008.4 |
| 20260510094812 | 58 | 208 | 8.7 | 14.8 | 0.00 | 0.18 | 0.06 | 99 | 1008.3 |
| 20260510093813 | 58 | 187 | 9.6 | 18.2 | 0.00 | 0.18 | 0.06 | 100 | 1008.2 |
| 20260510090813 | 56 | 173 | 11.3 | 19.1 | 0.00 | 0.18 | 0.06 | 100 | 1008.2 |
| 20260510084312 | 56 | 183 | 8.7 | 15.6 | 0.00 | 0.18 | 0.06 | 100 | 1008.2 |
| 20260510082312 | 54 | 204 | 8.7 | 14.8 | 0.00 | 0.18 | 0.06 | 100 | 1008.1 |
| 20260510075812 | 53 | 216 | 5.2 | 7.8 | 0.00 | 0.18 | 0.06 | 100 | 1008.3 |
| 20260510075311 | 53 | 217 | 5.2 | 7.0 | 0.00 | 0.18 | 0.06 | 100 | 1008.2 |
| 20260510073812 | 53 | 212 | 4.3 | 6.1 | 0.00 | 0.18 | 0.06 | 100 | 1008.1 |
| 20260510073312 | 53 | 215 | 4.3 | 6.1 | 0.00 | 0.18 | 0.06 | 100 | 1008.1 |
| 20260510072811 | 53 | 244 | 3.5 | 5.2 | 0.00 | 0.18 | 0.06 | 100 | 1008.0 |
| 20260510071811 | 52 | 260 | 2.6 | 8.7 | 0.00 | 0.18 | 0.06 | 100 | 1007.9 |
| 20260510070312 | 52 | 156 | 3.5 | 7.8 | 0.00 | 0.18 | 0.06 | 100 | 1007.8 |
| 20260510065312 | 51 | 170 | 5.2 | 7.0 | 0.00 | 0.18 | 0.06 | 100 | 1007.8 |
| 20260510064812 | 51 | 168 | 5.2 | 7.0 | 0.00 | 0.18 | 0.06 | 100 | 1007.8 |
| 20260510063312 | 50 | 164 | 4.3 | 7.0 | 0.00 | 0.18 | 0.06 | 100 | 1007.6 |
| 20260510062312 | 50 | 159 | 4.3 | 7.8 | 0.00 | 0.18 | 0.06 | 100 | 1007.6 |
| 20260510061812 | 50 | 161 | 3.5 | 7.8 | 0.00 | 0.18 | 0.06 | 100 | 1007.6 |
| 20260510061312 | 50 | 164 | 2.6 | 7.8 | 0.00 | 0.18 | 0.06 | 100 | 1007.6 |
| 20260510060812 | 49 | 163 | 4.3 | 7.8 | 0.00 | 0.18 | 0.06 | 100 | 1007.5 |
| 20260510055312 | 49 | 161 | 5.2 | 8.7 | 0.01 | 0.18 | 0.06 | 100 | 1007.5 |
| 20260510054812 | 48 | 161 | 6.1 | 10.4 | 0.01 | 0.18 | 0.06 | 100 | 1007.5 |
| 20260510053311 | 48 | 166 | 5.2 | 10.4 | 0.01 | 0.18 | 0.06 | 100 | 1007.6 |
| 20260510052312 | 48 | 155 | 6.1 | 7.8 | 0.01 | 0.18 | 0.06 | 100 | 1007.6 |
| 20260510045311 | 48 | 161 | 5.2 | 10.4 | 0.00 | 0.18 | 0.06 | 100 | 1007.6 |
| 20260510043812 | 47 | 165 | 6.1 | 8.7 | 0.00 | 0.19 | 0.06 | 100 | 1007.6 |
| 20260510042811 | 46 | 166 | 5.2 | 6.1 | 0.00 | 0.19 | 0.06 | 100 | 1007.6 |
| 20260510042311 | 45 | 169 | 4.3 | 5.2 | 0.00 | 0.19 | 0.06 | 100 | 1007.7 |
| 20260510040311 | 46 | 164 | 2.6 | 4.3 | 0.00 | 0.19 | 0.06 | 100 | 1007.7 |
| 20260510035811 | 46 | 156 | 2.6 | 4.3 | 0.00 | 0.19 | 0.06 | 100 | 1007.7 |
| 20260510033812 | 47 | 209 | 1.7 | 4.3 | 0.00 | 0.19 | 0.06 | 100 | 1007.8 |
| 20260510032812 | 47 | 202 | 1.7 | 6.1 | 0.00 | 0.19 | 0.06 | 100 | 1007.8 |
| 20260510032312 | 48 | 162 | 2.6 | 7.0 | 0.00 | 0.19 | 0.06 | 100 | 1007.8 |
| 20260510031812 | 48 | 163 | 5.2 | 8.7 | 0.00 | 0.19 | 0.06 | 100 | 1007.9 |
| 20260510030312 | 48 | 148 | 5.2 | 6.1 | 0.00 | 0.19 | 0.06 | 100 | 1007.9 |
| 20260510024812 | 49 | 156 | 5.2 | 8.7 | 0.02 | 0.19 | 0.06 | 100 | 1008.0 |
| 20260510024312 | 49 | 150 | 5.2 | 8.7 | 0.02 | 0.19 | 0.06 | 100 | 1007.9 |
| 20260510023312 | 49 | 150 | 7.0 | 8.7 | 0.03 | 0.19 | 0.06 | 100 | 1008.0 |
| 20260510022812 | 49 | 146 | 6.1 | 8.7 | 0.03 | 0.19 | 0.06 | 100 | 1008.0 |
| 20260510022312 | 49 | 149 | 6.1 | 8.7 | 0.04 | 0.19 | 0.06 | 100 | 1008.0 |
| 20260510021811 | 49 | 146 | 6.1 | 8.7 | 0.04 | 0.19 | 0.06 | 100 | 1008.1 |
| 20260510020812 | 49 | 142 | 7.0 | 10.4 | 0.05 | 0.19 | 0.06 | 100 | 1008.1 |
| 20260510020312 | 49 | 149 | 7.0 | 10.4 | 0.05 | 0.19 | 0.06 | 100 | 1008.2 |
| 20260510015812 | 49 | 150 | 6.1 | 10.4 | 0.04 | 0.18 | 0.05 | 100 | 1008.3 |
| 20260510015312 | 49 | 167 | 7.8 | 10.4 | 0.05 | 0.18 | 0.05 | 100 | 1008.5 |
| 20260510005812 | 50 | 172 | 9.6 | 13.9 | 0.01 | 0.14 | 0.01 | 100 | 1008.7 |
| 20260510004311 | 51 | 174 | 10.4 | 14.8 | 0.00 | 0.13 | 0.00 | 100 | 1008.6 |
| 20260510003311 | 51 | 165 | 7.8 | 13.0 | 0.00 | 0.13 | 0.00 | 100 | 1008.6 |
| 20260510001811 | 51 | 181 | 8.7 | 17.4 | 0.00 | 0.13 | 0.00 | 100 | 1008.6 |
| 20260509234312 | 51 | 175 | 7.8 | 11.3 | 0.00 | 0.13 | 0.00 | 100 | 1008.4 |
| 20260509233813 | 51 | 178 | 6.1 | 11.3 | 0.00 | 0.13 | 0.00 | 100 | 1008.4 |
| 20260509232811 | 51 | 175 | 7.8 | 10.4 | 0.00 | 0.13 | 0.00 | 100 | 1008.3 |
| 20260509232311 | 51 | 165 | 5.2 | 10.4 | 0.00 | 0.13 | 0.00 | 100 | 1008.3 |
| 20260509231312 | 51 | 165 | 6.1 | 10.4 | 0.00 | 0.13 | 0.00 | 100 | 1008.4 |
| 20260509224311 | 51 | 169 | 4.3 | 5.2 | 0.00 | 0.13 | 0.00 | 100 | 1008.2 |
| 20260509223811 | 51 | 191 | 2.6 | 6.1 | 0.00 | 0.13 | 0.00 | 100 | 1008.2 |
| 20260509222311 | 50 | 169 | 5.2 | 7.8 | 0.00 | 0.13 | 0.00 | 100 | 1008.1 |
| 20260509221814 | 50 | 163 | 5.2 | 7.0 | 0.00 | 0.13 | 0.00 | 100 | 1008.1 |
| 20260509215811 | 50 | 193 | 2.6 | 4.3 | 0.00 | 0.13 | 0.13 | 100 | 1008.2 |
| 20260509215313 | 50 | 200 | 1.7 | 2.6 | 0.00 | 0.13 | 0.13 | 100 | 1008.2 |
| 20260509214812 | 50 | 222 | 0.0 | 1.7 | 0.00 | 0.13 | 0.13 | 100 | 1008.1 |